Flag for U.S.A. Weather past 2 weeks in Jacksonville, Florida, U.S.A.

Now
64 °F

Broken clouds.


Feels Like: 64 °F
Forecast: 45 / 66 °F
Wind: 5 mph from East

Location: Jacksonville Naval Air Station

Current Time: Dec 19, 2014 at 11:45:21 AM

Latest Report: Dec 19, 2014 at 10:53 AM


Visibility: 10 mi

Pressure: 30.14 "Hg

Humidity: 40%

Dew point: 39 °F

Location of JacksonvilleLocation

Historic Weather in Jacksonville — Graph

°F

Jacksonville temperature yesterday

Maximum temperature yesterday: 65 °F (at 2:53 PM)
Minimum temperature yesterday: 49 °F (at 3:53 AM)
Average temperature yesterday: 56 °F

Past Weeks' High & Low Weather Summary

 TemperatureHumidityPressure
High78 °F (Dec 6, 3:53 PM)94% (Dec 6, 2:53 AM)30.33 "Hg (Dec 6, 2:53 AM)
Low40 °F (Dec 13, 7:53 AM)25% (Dec 13, 2:53 PM)29.99 "Hg (Dec 9, 2:53 PM)
Average58 °F65%30.14 "Hg
* Reported Dec 4 10:53 AM — Dec 19 10:53 AM, Jacksonville, Weather by CustomWeather, © 2014

Note: Actual official high and low records may vary slightly from our data, if they occured in-between our weather recording intervals... More about our weather records

Advertising

Jacksonville weather history for previous 24 hours

 ConditionsComfort  
Time TempWeatherWind HumidityBarometerVisibility
10:53 AM
Dec 19
64 °FBroken clouds.5 mph40%30.14 "Hg10 mi
9:53 AM58 °FPartly sunny.3 mph56%30.15 "Hg10 mi
8:53 AM56 °FBroken clouds.5 mph60%30.15 "Hg10 mi
7:53 AM54 °FBroken clouds.7 mph62%30.13 "Hg10 mi
6:53 AM53 °FPartly cloudy.5 mph64%30.11 "Hg10 mi
5:53 AM51 °FPartly cloudy.No wind71%30.09 "Hg10 mi
4:53 AM52 °FPartly cloudy.No wind69%30.09 "Hg10 mi
3:53 AM51 °FPassing clouds.No wind74%30.09 "Hg10 mi
2:53 AM53 °FPassing clouds.No wind69%30.10 "Hg10 mi
1:53 AM52 °FPassing clouds.3 mph75%30.12 "Hg10 mi
12:53 AM56 °FPassing clouds.3 mph62%30.11 "Hg10 mi
11:53 PM
Dec 18
54 °FPassing clouds.3 mph72%30.13 "Hg10 mi
10:53 PM57 °FPassing clouds.No wind64%30.12 "Hg10 mi
9:53 PM58 °FPassing clouds.No wind62%30.12 "Hg10 mi
8:53 PM59 °FPassing clouds.No wind60%30.11 "Hg10 mi
7:53 PM60 °FPassing clouds.5 mph60%30.12 "Hg10 mi
6:53 PM61 °FPassing clouds.No wind58%30.09 "Hg10 mi
5:53 PM63 °FPassing clouds.No wind52%30.09 "Hg10 mi
4:53 PM65 °FPartly sunny.5 mph47%30.09 "Hg10 mi
3:53 PM65 °FPartly sunny.7 mph44%30.09 "Hg10 mi
2:53 PM65 °FPartly sunny.6 mph45%30.09 "Hg10 mi
1:53 PM64 °FBroken clouds.7 mph47%30.10 "Hg10 mi
12:53 PM60 °FPartly sunny.3 mph56%30.14 "Hg10 mi
11:53 AM59 °FMostly cloudy.No wind58%30.17 "Hg10 mi
Weather by CustomWeather, © 2014

See weather overviewHow to use our weather pages